Meteo Giornale » Osservazioni meteo Francia » Parigi-Orly

ore: 17:30 - Osservazioni Meteo Parigi-Orly
Lat. 48° 44' N Lon. 2° 24' E Alt. 89 metri s.l.m.

sereno Europe/Paris

31 °C

Sereno

Temp. 24 Ore

13 °C

32 °C

Nord

7.4 Km/h

Dew point 11 °C

Umidità 29 %

Visibilità  10 Km

Il sole sorge alle ore 06:43

Il sole tramonta alle ore 21:05

Data e Ora Cielo e Fenomeni T °C DP °C Um. % Pres. hPa Vis. km Vento km/h
Oggi h: 17:30 sereno Sereno 31 11 29 1013 10 N 7.4
Oggi h: 17:00 sereno Sereno 32 13 31 1013 10 N 9.3
Oggi h: 16:30 sereno Sereno 31 12 31 1013 10 NO 7.4
Oggi h: 16:00 sereno Sereno 30 14 37 1014 10 N 9.3
Oggi h: 15:30 sereno Sereno 30 14 37 1014 10 O 9.3
Oggi h: 15:00 sereno Sereno 29 14 39 1014 10 S/SE 11.1
Oggi h: 14:30 sereno Sereno 29 14 39 1014 10 S 9.3
Oggi h: 14:00 sereno Sereno 28 14 42 1015 10 S 9.3
Oggi h: 13:30 sereno Sereno 28 14 42 1015 10 S 7.4
Oggi h: 13:00 sereno Sereno 27 15 47 1015 10 S 9.3
Oggi h: 12:30 sereno Sereno 26 15 50 1016 10 S/SE 9.3
Oggi h: 12:00 sereno Sereno 26 15 50 1016 10 S 11.1
Oggi h: 11:30 sereno Sereno 25 15 53 1016 10 S 13
Oggi h: 11:00 sereno Sereno 23 15 60 1016 10 S/SO 9.3
Oggi h: 10:30 sereno Sereno 22 15 64 1016 10 N 5.5
Oggi h: 10:00 sereno Sereno 21 15 68 1017 10 N 5.5
Oggi h: 09:30 sereno Sereno 20 15 72 1017 10 N 3.7
Oggi h: 09:00 sereno Sereno 18 15 82 1017 10 N 3.7
Oggi h: 08:30 sereno Sereno 17 15 88 1017 10 N 3.7
Oggi h: 08:00 sereno Sereno 15 15 100 1017 10 N 1.8
Oggi h: 07:30 sereno Sereno 14 14 100 1017 10 N 0
Oggi h: 07:00 nebbia Nebbia a Strati 13 13 100 1017 10 N 1.8
Oggi h: 06:30 sereno Sereno 14 13 93 1017 10 N 0
Oggi h: 06:00 sereno Sereno 14 14 100 1017 10 N 3.7
Oggi h: 05:30 sereno Sereno 14 13 93 1017 10 N 3.7
Oggi h: 05:00 sereno Sereno 14 13 93 1018 10 N 0
Oggi h: 04:30 sereno Sereno 14 13 93 1018 10 N 0
Oggi h: 04:00 sereno Sereno 14 13 93 1018 10 N 1.8
Oggi h: 03:30 sereno Sereno 15 13 87 1018 10 N 0
Oggi h: 03:00 sereno Sereno 15 14 93 1018 10 N 5.5
Oggi h: 02:30 sereno Sereno 15 13 87 1019 10 N 3.7
Oggi h: 02:00 sereno Sereno 15 13 87 1019 10 N 3.7
Oggi h: 01:30 sereno Sereno 16 13 82 1019 10 N 0
Oggi h: 01:00 sereno Sereno 16 13 82 1019 10 N 3.7
Oggi h: 00:30 sereno Sereno 16 12 77 1019 10 O 7.4
Oggi h: 00:00 sereno Sereno 17 13 77 1019 10 N 0
Ieri h: 23:30 sereno Sereno 18 13 72 1019 10 N 0
Ieri h: 23:00 sereno Sereno 18 13 72 1019 10 N 0
Ieri h: 22:30 sereno Sereno 19 14 72 1019 10 N 3.7
Ieri h: 22:00 sereno Sereno 20 14 68 1019 10 N 3.7
Ieri h: 21:30 sereno Sereno 21 14 64 1019 10 N 5.5
Ieri h: 21:00 sereno Sereno 22 13 56 1019 10 E/SE 9.3
Ieri h: 20:30 sereno Sereno 23 14 56 1019 10 E 9.3
Ieri h: 20:00 sereno Sereno 24 14 53 1019 10 E 11.1
Ieri h: 19:30 sereno Sereno 24 14 53 1019 10 N 5.5
Ieri h: 19:00 sereno Sereno 25 14 50 1019 10 N 7.4
Ieri h: 18:30 sereno Sereno 26 14 47 1019 10 N 5.5
Ieri h: 18:00 sereno Sereno 25 14 50 1020 10 N 11.1